N7NKE Weather Reports


Display with metric or nautical units.
time (UTC)temp
F
wind
direction
speed
MPH
gust
MPH
rain 1hr
in
rain 24hr
in
rain mn
in
humidity
%
barometer
mb
20260903062505 57 195 3.0 6.0 0.00 0.27 0.27 87 1009.1
20260903062005 57 177 4.0 6.0 0.00 0.27 0.27 87 1009.0
20260903061505 57 164 3.0 6.0 0.00 0.27 0.27 87 1009.0
20260903061004 57 183 3.0 5.0 0.00 0.27 0.27 87 1009.1
20260903060505 57 195 2.0 9.0 0.00 0.27 0.27 86 1009.2
20260903060004 57 200 3.0 7.0 0.00 0.27 0.27 86 1009.2
20260903055505 57 175 2.0 6.0 0.00 0.27 0.27 86 1009.3
20260903055005 57 198 3.0 8.0 0.00 0.27 0.27 86 1009.3
20260903054505 57 198 6.0 8.0 0.00 0.27 0.27 86 1009.3
20260903054005 57 189 3.0 7.0 0.00 0.27 0.27 86 1009.3
20260903053504 57 173 3.0 10.0 0.00 0.27 0.27 86 1009.2
20260903051005 57 184 3.0 6.0 0.00 0.27 0.27 85 1009.2
20260903050505 57 189 3.0 6.0 0.00 0.27 0.27 85 1009.1
20260903050005 56 202 2.0 9.0 0.00 0.27 0.27 85 1009.0
20260903045505 56 187 4.0 7.0 0.00 0.27 0.27 86 1009.0
20260903045004 56 183 2.0 5.0 0.00 0.27 0.27 85 1009.0
20260903044505 56 203 5.0 7.0 0.00 0.27 0.27 86 1008.8
20260903044004 56 179 5.0 7.0 0.00 0.27 0.27 86 1008.8
20260903043505 56 194 3.0 6.0 0.00 0.27 0.27 86 1008.7
20260903043005 56 203 3.0 5.0 0.00 0.27 0.27 86 1008.6
20260903042504 56 202 3.0 5.0 0.00 0.27 0.27 86 1008.5
20260903042005 56 193 2.0 6.0 0.00 0.27 0.27 86 1008.6
20260903041505 56 203 3.0 6.0 0.00 0.27 0.27 85 1008.5
20260903041005 56 197 2.0 3.0 0.00 0.27 0.27 85 1008.6
20260903040504 56 203 2.0 5.0 0.00 0.27 0.27 84 1008.5
20260903040004 56 225 3.0 3.0 0.00 0.27 0.27 84 1008.5
20260903035505 56 215 2.0 5.0 0.00 0.27 0.27 84 1008.3
20260903035005 56 204 3.0 6.0 0.00 0.27 0.27 85 1008.3
20260903034505 56 209 2.0 6.0 0.00 0.27 0.27 85 1008.3
20260903033505 57 191 2.0 5.0 0.00 0.27 0.27 85 1008.0
20260903032005 57 194 2.0 3.0 0.00 0.27 0.27 84 1007.9
20260903031504 58 218 3.0 3.0 0.00 0.27 0.27 84 1008.0
20260903031004 58 215 2.0 5.0 0.00 0.27 0.27 83 1007.9
20260903030504 58 214 2.0 3.0 0.00 0.27 0.27 83 1007.8
20260903030005 59 213 2.0 3.0 0.00 0.27 0.27 82 1007.8
20260903025005 60 243 1.0 3.0 0.00 0.27 0.27 80 1007.6
20260903024504 60 212 3.0 6.0 0.00 0.27 0.27 80 1007.6
20260903024005 60 210 2.0 3.0 0.00 0.27 0.27 80 1007.6
20260903023504 61 218 2.0 3.0 0.00 0.27 0.27 80 1007.6
20260903023005 61 206 2.0 3.0 0.00 0.27 0.27 79 1007.5
20260903022505 62 225 2.0 3.0 0.00 0.27 0.27 78 1007.5
20260903022004 63 170 2.0 3.0 0.00 0.27 0.27 78 1007.4
20260903021505 64 196 1.0 3.0 0.00 0.27 0.27 76 1007.4
20260903021004 64 201 2.0 3.0 0.01 0.27 0.27 74 1007.4
20260903020504 65 206 3.0 3.0 0.01 0.27 0.27 72 1007.3
20260903020004 65 235 2.0 5.0 0.01 0.27 0.27 72 1007.2
20260903015504 65 221 2.0 2.0 0.01 0.27 0.27 70 1007.3
20260903015004 65 272 1.0 3.0 0.01 0.27 0.27 73 1007.2
20260903014505 66 254 3.0 6.0 0.01 0.27 0.27 70 1007.3
20260903013505 65 234 0.0 2.0 0.01 0.27 0.27 71 1007.2
20260903013005 65 234 0.0 2.0 0.01 0.27 0.27 73 1007.1
20260903012505 64 211 0.0 2.0 0.01 0.27 0.27 76 1007.1
20260903012005 64 205 1.0 2.0 0.01 0.27 0.27 73 1007.0
20260903011005 65 235 1.0 2.0 0.00 0.26 0.26 73 1006.9
20260903010504 65 206 1.0 5.0 0.00 0.26 0.26 69 1006.9
20260903010005 66 200 3.0 6.0 0.00 0.26 0.26 68 1006.9
20260903005505 66 221 3.0 6.0 0.00 0.26 0.26 70 1006.8
20260903005005 67 258 4.0 8.0 0.00 0.26 0.26 67 1006.8
20260903004504 66 214 2.0 7.0 0.00 0.26 0.26 67 1006.7
20260903004004 66 198 5.0 9.0 0.00 0.26 0.26 69 1006.6
20260903003505 66 175 5.0 7.0 0.00 0.26 0.26 73 1006.7
20260903003004 65 193 5.0 7.0 0.00 0.26 0.26 72 1006.8
20260903002504 66 182 4.0 7.0 0.00 0.26 0.26 71 1006.7
20260903002004 66 176 2.0 8.0 0.00 0.26 0.26 68 1006.7
20260903001505 67 204 6.0 10.0 0.00 0.26 0.26 72 1006.6
20260903000505 66 204 4.0 7.0 0.00 0.26 0.26 73 1006.7
20260902235505 66 258 4.0 9.0 0.00 0.26 0.26 71 1006.6
20260902235005 65 226 3.0 6.0 0.00 0.26 0.26 71 1006.6
20260902234504 66 148 3.0 6.0 0.00 0.26 0.26 73 1006.5
20260902234005 66 199 4.0 7.0 0.00 0.26 0.26 71 1006.5
20260902233504 66 201 5.0 8.0 0.00 0.26 0.26 76 1006.4
20260902232504 65 186 3.0 8.0 0.00 0.26 0.26 77 1006.5
20260902232005 65 202 2.0 3.0 0.00 0.26 0.26 78 1006.5
20260902231504 64 182 3.0 5.0 0.00 0.26 0.26 81 1006.4
20260902231005 64 175 3.0 6.0 0.01 0.26 0.26 81 1006.4
20260902230004 64 225 4.0 8.0 0.01 0.26 0.26 85 1006.4
20260902225504 63 169 5.0 9.0 0.01 0.26 0.26 87 1006.4
20260902224505 61 200 5.0 9.0 0.01 0.26 0.26 88 1006.1
20260902224004 61 196 4.0 8.0 0.01 0.26 0.26 89 1006.1
20260902223505 61 205 6.0 8.0 0.01 0.26 0.26 89 1006.0
20260902223004 61 180 6.0 13.0 0.02 0.26 0.26 89 1006.0
20260902222505 60 183 5.0 10.0 0.02 0.26 0.26 90 1006.0
20260902222004 60 192 6.0 12.0 0.02 0.26 0.26 89 1006.0
20260902221506 60 190 8.0 14.0 0.02 0.26 0.26 89 1005.9
20260902220505 60 176 10.0 15.0 0.01 0.25 0.25 90 1005.7
20260902215504 60 176 8.0 16.0 0.02 0.25 0.25 90 1005.6
20260902215005 60 146 9.0 16.0 0.02 0.25 0.25 90 1005.5
20260902214504 59 178 7.0 13.0 0.02 0.25 0.25 90 1005.6
20260902214005 59 154 6.0 13.0 0.02 0.25 0.25 90 1005.6
20260902213504 59 175 6.0 14.0 0.02 0.25 0.25 90 1005.6
20260902213004 59 174 7.0 17.0 0.02 0.24 0.24 90 1005.6
20260902212505 59 184 7.0 13.0 0.02 0.24 0.24 90 1005.6
20260902212004 59 163 7.0 13.0 0.02 0.24 0.24 90 1005.6
20260902211504 59 151 7.0 13.0 0.02 0.24 0.24 89 1005.6
20260902211004 59 167 8.0 14.0 0.03 0.24 0.24 89 1005.5
20260902205505 59 163 8.0 14.0 0.03 0.23 0.23 89 1005.5
20260902205004 58 176 10.0 16.0 0.03 0.23 0.23 89 1005.4
20260902204504 59 165 10.0 14.0 0.03 0.23 0.23 90 1005.4
20260902203505 58 162 6.0 15.0 0.03 0.23 0.23 89 1005.4
20260902202004 58 179 5.0 13.0 0.03 0.22 0.22 89 1005.4
20260902201005 58 180 6.0 15.0 0.02 0.21 0.21 89 1005.4
20260902200505 58 158 8.0 16.0 0.02 0.21 0.21 88 1005.4
20260902200004 58 159 10.0 15.0 0.03 0.21 0.21 88 1005.3
20260902195504 58 161 7.0 13.0 0.04 0.20 0.20 88 1005.4
20260902195004 59 191 7.0 16.0 0.06 0.20 0.20 88 1005.4
20260902194504 59 185 6.0 17.0 0.06 0.20 0.20 88 1005.3
20260902193504 58 125 6.0 10.0 0.07 0.20 0.20 89 1005.3
20260902192505 58 177 9.0 12.0 0.08 0.20 0.20 89 1005.5
20260902192004 58 184 9.0 14.0 0.07 0.19 0.19 89 1005.6
20260902191505 58 176 4.0 13.0 0.07 0.19 0.19 89 1005.7
20260902191004 58 163 4.0 12.0 0.07 0.19 0.19 89 1005.7
20260902190504 58 133 4.0 9.0 0.07 0.19 0.19 88 1005.8
20260902190004 59 169 7.0 10.0 0.07 0.18 0.18 88 1006.0
20260902185505 59 172 6.0 12.0 0.05 0.16 0.16 88 1006.1
20260902185004 59 172 5.0 10.0 0.04 0.14 0.14 88 1006.0
20260902184504 59 191 6.0 10.0 0.04 0.14 0.14 88 1006.0
20260902184005 59 182 6.0 10.0 0.03 0.13 0.13 88 1005.9
20260902183504 59 151 6.0 10.0 0.04 0.13 0.13 88 1006.0
20260902183005 59 171 6.0 9.0 0.03 0.12 0.12 88 1006.0
20260902182504 59 185 3.0 7.0 0.03 0.12 0.12 88 1006.0
20260902182004 59 150 5.0 10.0 0.04 0.12 0.12 88 1006.1
20260902181505 58 181 5.0 10.0 0.05 0.12 0.12 88 1006.1
20260902181004 58 166 6.0 10.0 0.05 0.12 0.12 88 1006.2
20260902180505 59 155 5.0 12.0 0.07 0.12 0.12 88 1006.2
20260902175504 59 179 6.0 12.0 0.07 0.11 0.11 88 1006.4
20260902175005 59 149 7.0 13.0 0.07 0.10 0.10 88 1006.4
20260902174505 59 134 4.0 12.0 0.08 0.10 0.10 88 1006.4
20260902174004 59 176 5.0 9.0 0.09 0.10 0.10 88 1006.4
20260902173505 59 162 6.0 12.0 0.08 0.09 0.09 88 1006.5
20260902173004 59 158 5.0 7.0 0.09 0.09 0.09 88 1006.4
20260902172504 59 150 3.0 10.0 0.09 0.09 0.09 88 1006.4
20260902171505 59 181 3.0 9.0 0.07 0.07 0.07 87 1006.4
20260902170504 59 182 3.0 5.0 0.05 0.05 0.05 87 1006.5
20260902170005 59 183 2.0 5.0 0.04 0.04 0.04 86 1006.4
20260902165504 60 165 2.0 3.0 0.04 0.04 0.04 86 1006.5
20260902164505 60 155 2.0 5.0 0.02 0.02 0.02 86 1006.4
20260902164004 60 163 2.0 3.0 0.01 0.01 0.01 85 1006.5
20260902163504 60 158 2.0 5.0 0.01 0.01 0.01 85 1006.5
20260902163004 60 171 1.0 3.0 0.00 0.00 0.00 85 1006.4
20260902162504 60 174 2.0 5.0 0.00 0.00 0.00 85 1006.5
20260902162004 60 170 2.0 3.0 0.00 0.00 0.00 84 1006.4
20260902161504 60 202 1.0 2.0 0.00 0.00 0.00 84 1006.4
20260902161004 60 184 2.0 3.0 0.00 0.00 0.00 83 1006.4
20260902160504 60 173 2.0 3.0 0.00 0.00 0.00 82 1006.4
20260902160006 60 171 2.0 5.0 0.00 0.00 0.00 82 1006.4
20260902155504 60 215 2.0 3.0 0.00 0.00 0.00 82 1006.4
20260902155004 60 181 2.0 5.0 0.00 0.00 0.00 83 1006.4
20260902154504 60 159 1.0 5.0 0.00 0.00 0.00 82 1006.5
20260902154004 60 191 2.0 2.0 0.00 0.00 0.00 83 1006.5
20260902153504 60 173 1.0 3.0 0.00 0.00 0.00 84 1006.6
20260902152504 60 192 2.0 2.0 0.00 0.00 0.00 84 1006.7
20260902152005 59 188 1.0 2.0 0.00 0.00 0.00 84 1006.8
20260902151505 59 209 1.0 5.0 0.00 0.00 0.00 84 1006.8
20260902151005 59 190 2.0 6.0 0.00 0.00 0.00 84 1007.0
20260902150504 59 180 3.0 6.0 0.00 0.00 0.00 84 1007.0
20260902150004 59 199 3.0 5.0 0.00 0.00 0.00 84 1007.0
20260902145506 59 196 2.0 3.0 0.00 0.00 0.00 85 1007.0
20260902145004 59 189 2.0 2.0 0.00 0.00 0.00 85 1007.0
20260902144505 58 193 0.0 1.0 0.00 0.00 0.00 85 1007.0
20260902144004 58 193 1.0 2.0 0.00 0.00 0.00 86 1007.1
20260902143504 58 192 0.0 2.0 0.00 0.00 0.00 86 1007.1
20260902143004 58 223 1.0 2.0 0.00 0.00 0.00 86 1007.1
20260902142504 58 223 0.0 1.0 0.00 0.00 0.00 86 1007.1
20260902142004 58 223 1.0 2.0 0.00 0.00 0.00 86 1007.2
20260902141504 58 223 1.0 1.0 0.00 0.00 0.00 86 1007.3
20260902140504 58 223 0.0 2.0 0.00 0.00 0.00 86 1007.3
20260902140005 58 223 1.0 2.0 0.00 0.00 0.00 86 1007.3
20260902134504 58 223 1.0 2.0 0.00 0.00 0.00 86 1007.6
20260902134004 58 202 1.0 2.0 0.00 0.00 0.00 86 1007.6
20260902133004 58 148 0.0 0.0 0.00 0.00 0.00 86 1007.6
20260902132504 58 148 0.0 0.0 0.00 0.00 0.00 86 1007.6
20260902132004 58 148 0.0 2.0 0.00 0.00 0.00 86 1007.7
20260902131504 58 148 0.0 2.0 0.00 0.00 0.00 86 1007.8
20260902131004 58 153 1.0 2.0 0.00 0.00 0.00 86 1007.9
20260902130504 58 213 0.0 0.0 0.00 0.00 0.00 86 1008.1
20260902125504 58 213 0.0 2.0 0.00 0.00 0.00 86 1008.2
20260902124504 58 213 1.0 2.0 0.00 0.00 0.00 86 1008.4
20260902124004 58 213 0.0 0.0 0.00 0.00 0.00 86 1008.4
20260902123504 58 213 0.0 2.0 0.00 0.00 0.00 86 1008.4
20260902123005 58 213 1.0 1.0 0.00 0.00 0.00 86 1008.5
20260902122504 58 156 1.0 2.0 0.00 0.00 0.00 86 1008.5
20260902122004 58 153 0.0 0.0 0.00 0.00 0.00 86 1008.6
20260902121504 58 153 0.0 0.0 0.00 0.00 0.00 86 1008.7
20260902121004 58 153 0.0 0.0 0.00 0.00 0.00 86 1008.7
20260902120504 58 153 0.0 0.0 0.00 0.00 0.00 86 1008.8
20260902120004 58 153 0.0 0.0 0.00 0.00 0.00 85 1008.9
20260902115505 58 153 0.0 0.0 0.00 0.00 0.00 85 1008.9
20260902115004 58 153 0.0 0.0 0.00 0.00 0.00 85 1009.0
20260902114504 58 153 0.0 0.0 0.00 0.00 0.00 85 1009.1
20260902113504 59 153 1.0 2.0 0.00 0.00 0.00 85 1009.3
20260902113004 59 153 0.0 0.0 0.00 0.00 0.00 85 1009.3
20260902112504 59 153 0.0 2.0 0.00 0.00 0.00 84 1009.3
20260902112004 59 171 2.0 3.0 0.00 0.00 0.00 84 1009.4
20260902111504 59 160 2.0 3.0 0.00 0.00 0.00 84 1009.4
20260902110504 59 158 2.0 2.0 0.00 0.00 0.00 84 1009.5
20260902105504 59 141 1.0 5.0 0.00 0.00 0.00 85 1009.5
20260902105004 59 182 1.0 2.0 0.00 0.00 0.00 85 1009.5
20260902104504 59 187 2.0 3.0 0.00 0.00 0.00 85 1009.6
20260902104004 59 198 0.0 2.0 0.00 0.00 0.00 85 1009.6
20260902103504 59 198 1.0 3.0 0.00 0.00 0.00 85 1009.7
20260902103005 58 181 2.0 3.0 0.00 0.00 0.00 85 1009.7
20260902102503 58 186 1.0 3.0 0.00 0.00 0.00 85 1009.7
20260902102004 58 205 1.0 2.0 0.00 0.00 0.00 85 1009.7
20260902101504 58 191 2.0 5.0 0.00 0.00 0.00 85 1009.8
20260902101004 58 188 0.0 2.0 0.00 0.00 0.00 85 1009.6
20260902100004 58 185 2.0 3.0 0.00 0.00 0.00 85 1009.7
20260902095504 58 190 1.0 3.0 0.00 0.00 0.00 85 1009.8
20260902095004 58 202 2.0 5.0 0.00 0.00 0.00 86 1009.8
20260902094504 58 210 2.0 5.0 0.00 0.00 0.00 86 1009.8
20260902092504 57 172 2.0 5.0 0.00 0.00 0.00 86 1010.0
20260902091504 57 185 1.0 2.0 0.00 0.00 0.00 86 1010.0
20260902090504 57 188 1.0 2.0 0.00 0.00 0.00 85 1010.3
20260902090005 57 195 1.0 2.0 0.00 0.00 0.00 85 1010.4
20260902085504 57 217 1.0 1.0 0.00 0.00 0.00 84 1010.3
20260902085004 58 233 1.0 2.0 0.00 0.00 0.00 84 1010.5
20260902084504 58 217 1.0 2.0 0.00 0.00 0.00 83 1010.4
20260902084004 59 183 0.0 1.0 0.00 0.00 0.00 83 1010.4
20260902083504 59 183 0.0 2.0 0.00 0.00 0.00 83 1010.4
20260902083005 59 183 1.0 2.0 0.00 0.00 0.00 83 1010.5
20260902082504 59 192 1.0 3.0 0.00 0.00 0.00 83 1010.5
20260902082004 59 200 2.0 3.0 0.00 0.00 0.00 83 1010.5
20260902081504 60 185 2.0 6.0 0.00 0.00 0.00 83 1010.5
20260902081004 60 201 3.0 6.0 0.00 0.00 0.00 83 1010.7
20260902080004 60 210 4.0 7.0 0.00 0.00 0.00 82 1010.6
20260902075504 60 202 3.0 7.0 0.00 0.00 0.00 82 1010.7
20260902075004 60 203 3.0 6.0 0.00 0.00 0.00 82 1010.7
20260902074504 60 202 3.0 6.0 0.00 0.00 0.00 81 1010.6
20260902074004 61 346 3.0 8.0 0.00 0.00 0.00 81 1010.6
20260902073504 61 226 3.0 9.0 0.00 0.00 0.00 80 1010.6
20260902073004 61 201 6.0 9.0 0.00 0.00 0.00 80 1010.7
20260902072504 61 191 6.0 12.0 0.00 0.00 0.00 79 1010.8
20260902072004 61 161 6.0 15.0 0.00 0.00 0.00 78 1010.8
20260902071504 61 179 6.0 10.0 0.00 0.00 0.00 78 1010.9
20260902071004 61 191 3.0 9.0 0.00 0.00 0.00 78 1010.8
20260902070504 61 205 5.0 12.0 0.00 0.00 0.00 78 1010.9
20260902070006 61 188 6.0 12.0 0.00 0.00 0.00 77 1011.0
20260902065504 61 165 4.0 7.0 0.00 0.00 0.00 77 1011.0
20260902065005 61 192 5.0 9.0 0.00 0.00 0.00 77 1011.0
20260902064504 61 194 5.0 9.0 0.00 0.00 0.00 77 1011.1
20260902064004 61 204 3.0 7.0 0.00 0.00 0.00 77 1011.0